Macau International, China

7:25 PM CST on August 21, 2017 (GMT +0800)
Macau International

Weather History for VMMC - August, 2013

Change the Weather History Date:

Wednesday, August 14, 2013

  Actual Average Record
Temperature  
Mean Temperature 78 °F -  
Max Temperature 82 °F 84 °F 91 °F (2004)
Min Temperature 74 °F 77 °F 74 °F (2013)
Cooling Degree Days 13    
Growing Degree Days 28 (Base 50)    
Moisture  
Dew Point 76 °F    
Average Humidity 86    
Maximum Humidity 99    
Minimum Humidity 79    
Precipitation  
Precipitation 2.64 in - - ()
Sea Level Pressure  
Sea Level Pressure 29.44 in    
Wind  
Wind Speed 26 mph ()    
Max Wind Speed 34 mph    
Max Gust Speed 46 mph    
Visibility 4.0 miles    
Events Rain    
Averages and records for this station are not official NWS values.
T = Trace of Precipitation, MM = Missing Value Source: Averaged Metar Reports

Daily Weather History Graph

Daily Weather History Graph

Search for Another Location

Airport or City:

Trip Planner

Search our weather history database for the weather conditions in past years. The results will help you decide how hot, cold, wet, or windy it might be!

Date:

Astronomy

Aug. 14, 2013 Rise Set
Actual Time 6:02 AM CST 6:57 PM CST
Civil Twilight 5:39 AM CST 7:21 PM CST
Nautical Twilight 5:11 AM CST 7:48 PM CST
Astronomical Twilight 4:43 AM CST 8:16 PM CST
Moon 12:27 PM CST (8/14) 11:53 PM CST (8/14)
Length of Visible Light 13h 41m
Length of Day
12h 55m
Waxing Crescent, 47% of the Moon is Illuminated
Aug 14
Waxing Crescent
Aug 14
First Quarter
Aug 21
Full
Aug 28
Last Quarter
Sep 5
New

Hourly Weather History & Observations

Time (CST) Temp. Heat Index Dew Point Humidity Pressure Visibility Wind Dir Wind Speed Gust Speed Precip Events Conditions
12:00 AM 84.2 °F 94.1 °F 77.0 °F 79% 29.50 in 6.2 mi ENE 26.5 mph - N/A   Scattered Clouds
12:09 AM 82.4 °F 90.9 °F 77.0 °F 84% 29.50 in 3.1 mi ENE 23.0 mph - N/A Rain Rain Showers
12:30 AM 82.4 °F 90.9 °F 77.0 °F 84% 29.47 in 6.2 mi ENE 28.8 mph - N/A Rain Light Rain Showers
1:00 AM 84.2 °F 94.1 °F 77.0 °F 79% 29.47 in 6.2 mi ENE 28.8 mph - N/A   Scattered Clouds
1:30 AM 82.4 °F 90.9 °F 77.0 °F 84% 29.47 in 5.6 mi East 25.3 mph - N/A Rain Light Rain Showers
2:00 AM 84.2 °F 94.1 °F 77.0 °F 79% 29.44 in 6.2 mi East 26.5 mph 38.0 mph N/A   Mostly Cloudy
2:30 AM 82.4 °F 90.9 °F 77.0 °F 84% 29.42 in 6.2 mi East 27.6 mph - N/A   Scattered Clouds
3:00 AM 84.2 °F 94.1 °F 77.0 °F 79% 29.42 in 6.2 mi East 32.2 mph - N/A   Mostly Cloudy
3:30 AM 82.4 °F 90.9 °F 77.0 °F 84% 29.39 in 1.9 mi East 34.5 mph 46.0 mph N/A Rain Rain Showers
3:45 AM 82.4 °F 90.9 °F 77.0 °F 84% 29.39 in 5.0 mi East 31.1 mph - N/A Rain Light Rain Showers
4:00 AM 82.4 °F 90.9 °F 77.0 °F 84% 29.39 in 6.2 mi East 27.6 mph 39.1 mph N/A Rain Light Rain Showers
4:30 AM 82.4 °F 90.9 °F 77.0 °F 84% 29.39 in 6.2 mi East 29.9 mph - N/A Rain Light Rain Showers
4:50 AM 82.4 °F 90.9 °F 77.0 °F 84% 29.39 in 1.6 mi East 33.4 mph - N/A Rain Heavy Rain Showers
5:00 AM 80.6 °F 87.1 °F 77.0 °F 89% 29.39 in 1.9 mi East 32.2 mph 44.9 mph N/A Rain Rain Showers
5:30 AM 82.4 °F 90.9 °F 77.0 °F 84% 29.39 in 3.1 mi East 31.1 mph - N/A Rain Light Rain Showers
6:00 AM 80.6 °F 87.1 °F 77.0 °F 89% 29.39 in 6.2 mi East 32.2 mph - N/A   Scattered Clouds
6:30 AM 82.4 °F 90.9 °F 77.0 °F 84% 29.39 in 3.1 mi East 28.8 mph - N/A Rain Light Rain Showers
6:39 AM 80.6 °F 87.1 °F 77.0 °F 89% 29.39 in 1.2 mi East 27.6 mph - N/A Rain Rain Showers
7:00 AM 77.0 °F - 75.2 °F 94% 29.42 in 1.2 mi ESE 26.5 mph 46.0 mph N/A Rain Heavy Rain Showers
7:06 AM 78.8 °F - 77.0 °F 94% 29.39 in 6.2 mi ESE 21.9 mph 33.4 mph N/A Rain Light Rain Showers
7:30 AM 82.4 °F 90.9 °F 77.0 °F 84% 29.39 in 5.6 mi East 29.9 mph - N/A Rain Light Rain Showers
8:00 AM 79 °F - 77 °F 93% 29.43 in 5 mi ESE 19.6 mph - - Rain Rain Showers
8:00 AM 82.4 °F 90.9 °F 77.0 °F 84% 29.39 in 4.3 mi ESE 29.9 mph - N/A Rain Light Rain Showers
8:30 AM 84.2 °F 94.1 °F 77.0 °F 79% 29.39 in 5.6 mi ESE 28.8 mph - N/A Rain Light Rain Showers
9:00 AM 84.2 °F 94.1 °F 77.0 °F 79% 29.42 in 3.7 mi ESE 32.2 mph - N/A Rain Light Rain Showers
9:30 AM 82.4 °F 90.9 °F 77.0 °F 84% 29.42 in 3.7 mi ESE 31.1 mph 43.7 mph N/A Rain Light Rain Showers
10:00 AM 82.4 °F 90.9 °F 77.0 °F 84% 29.42 in 4.3 mi ESE 29.9 mph - N/A Rain Light Rain Showers
10:30 AM 84.2 °F 94.1 °F 77.0 °F 79% 29.42 in 5.6 mi ESE 31.1 mph - N/A Rain Light Rain Showers
11:00 AM 81 °F - 76 °F 82% 29.43 in 6 mi ESE 13.8 mph - - Rain Rain Showers
11:00 AM 82.4 °F 90.9 °F 77.0 °F 84% 29.42 in 3.7 mi ESE 31.1 mph - N/A Rain Light Rain Showers
11:03 AM 84.2 °F 94.1 °F 77.0 °F 79% 29.42 in 1.2 mi SE 31.1 mph - N/A Rain Rain Showers
11:30 AM 80.6 °F 87.1 °F 77.0 °F 89% 29.42 in 3.1 mi SE 34.5 mph - N/A Rain Light Rain Showers
12:00 PM 80.6 °F 87.1 °F 77.0 °F 89% 29.42 in 1.6 mi ESE 32.2 mph 43.7 mph N/A Rain Rain Showers
12:11 PM 80.6 °F 87.1 °F 77.0 °F 89% 29.42 in 4.3 mi SE 34.5 mph - N/A Rain Light Rain Showers
12:30 PM 80.6 °F 87.1 °F 77.0 °F 89% 29.42 in 3.7 mi SE 32.2 mph - N/A Rain Light Rain Showers
1:00 PM 82.4 °F 89.5 °F 75.2 °F 79% 29.42 in 3.1 mi SE 33.4 mph - N/A Rain Light Rain Showers
1:30 PM 80.6 °F 87.1 °F 77.0 °F 89% 29.42 in 3.1 mi SE 33.4 mph - N/A Rain Light Rain Showers
2:00 PM 79 °F - 77 °F 90% 29.40 in 2 mi South 17.3 mph - - Rain Rain Showers
2:00 PM 80.6 °F 86.2 °F 75.2 °F 84% 29.39 in 1.7 mi SE 32.2 mph 43.7 mph N/A Rain Rain Showers
2:30 PM 80.6 °F 87.1 °F 77.0 °F 89% 29.39 in 2.2 mi SE 28.8 mph - N/A Rain Rain Showers
3:00 PM 78.8 °F - 77.0 °F 94% 29.42 in 3.1 mi SSE 31.1 mph - N/A Rain Light Rain Showers
3:30 PM 82.4 °F 89.5 °F 75.2 °F 79% 29.39 in 2.2 mi SE 29.9 mph - N/A Rain Light Rain Showers
4:00 PM 82.4 °F 89.5 °F 75.2 °F 79% 29.39 in 3.1 mi SSE 32.2 mph - N/A Rain Light Rain Showers
4:21 PM 82.4 °F 89.5 °F 75.2 °F 79% 29.39 in 1.2 mi SSE 33.4 mph - N/A Rain Rain Showers
4:30 PM 78.8 °F - 75.2 °F 89% 29.42 in 0.6 mi South 32.2 mph - N/A Rain Heavy Rain Showers
5:00 PM 75 °F - 75 °F 99% 29.43 in 1 mi SSE 15.0 mph - - Rain Rain Showers
5:00 PM 77.0 °F - 75.2 °F 94% 29.42 in 0.9 mi South 26.5 mph - N/A Rain Heavy Rain Showers
5:17 PM 77.0 °F - 75.2 °F 94% 29.42 in 2.5 mi SSE 29.9 mph 42.6 mph N/A Rain Light Rain Showers
5:30 PM 78.8 °F - 75.2 °F 89% 29.42 in 4.3 mi SSE 25.3 mph - N/A Rain Light Rain Showers
6:00 PM 80.6 °F 87.1 °F 77.0 °F 89% 29.44 in 1.2 mi SSE 27.6 mph - N/A Rain Rain Showers
6:30 PM 80.6 °F 86.2 °F 75.2 °F 84% 29.44 in 3.1 mi SSE 31.1 mph - N/A Rain Light Rain Showers
7:00 PM 80.6 °F 87.1 °F 77.0 °F 89% 29.44 in 3.7 mi SSE 25.3 mph - N/A Rain Light Rain Showers
7:14 PM 78.8 °F - 77.0 °F 94% 29.47 in 1.7 mi SSE 28.8 mph - N/A Rain Rain Showers
7:30 PM 77.0 °F - 75.2 °F 94% 29.47 in 3.1 mi South 21.9 mph 35.7 mph N/A Rain Light Rain Showers
8:00 PM 77 °F - 76 °F 97% 29.50 in 6 mi SSE 12.7 mph - - Rain Light Rain Showers
8:00 PM 77.0 °F - 75.2 °F 94% 29.47 in 5.6 mi South 27.6 mph - N/A Rain Light Rain Showers
8:10 PM 77.0 °F - 75.2 °F 94% 29.50 in 1.7 mi South 27.6 mph 39.1 mph N/A Rain Rain Showers
8:30 PM 78.8 °F - 77.0 °F 94% 29.50 in 5.0 mi South 26.5 mph - N/A Rain Light Rain Showers
9:00 PM 80.6 °F 87.1 °F 77.0 °F 89% 29.50 in 6.2 mi SSE 27.6 mph - N/A Rain Light Rain Showers
9:30 PM 80.6 °F 86.2 °F 75.2 °F 84% 29.53 in 6.2 mi SSE 28.8 mph - N/A   Scattered Clouds
10:00 PM 82.4 °F 89.5 °F 75.2 °F 79% 29.53 in 6.2 mi SSE 31.1 mph - N/A   Scattered Clouds
10:30 PM 80.6 °F 86.2 °F 75.2 °F 84% 29.53 in 6.2 mi South 27.6 mph - N/A   Scattered Clouds
10:57 PM 80.6 °F 87.1 °F 77.0 °F 89% 29.56 in 5.0 mi SSE 31.1 mph 42.6 mph N/A   Scattered Clouds
11:00 PM 79 °F - 76 °F 90% 29.56 in 7 mi SSE 15.0 mph - - Rain Rain Showers
11:00 PM 80.6 °F 87.1 °F 77.0 °F 89% 29.56 in 5.6 mi SSE 32.2 mph - N/A Rain Light Rain Showers
11:15 PM 82.4 °F 89.5 °F 75.2 °F 79% 29.56 in 5.6 mi South 29.9 mph - N/A   Mostly Cloudy
11:30 PM 82.4 °F 90.9 °F 77.0 °F 84% 29.56 in 6.2 mi SSE 26.5 mph - N/A   Mostly Cloudy